Weather in Oberhausen

Germany     51°28′32″N   6°51′55″E
temp.,
°C
wind,
m/s
gust,
m/s
humid.,
%
clouds,
%
prec.,
mm/h
press.,
hPa
HPBL,
m
18 april, sun
sun1823:00+6n387341 0.0 1023220
02:00+6n247577 0.0 1023124
05:00+5nnw2282100 0.0 102270
08:00+6nnw1278100 0.0 1023100
11:00+10n246896 0.0 1023559
14:00+13nne2357100 0.2 10211107
17:00+14n235587 0.2 10201299
20:00+11nnw367656 0.6 1021234
19 april, mon
mon1923:00+8n2290100 0.2 102138
02:00+7n2395100 0.2 102055
05:00+7nnw2398100 0.5 1019110
08:00+7wsw1296100 1.6 1019144
11:00+8wsw2395100 0.9 1019269
14:00+8sw1291100 0.9 1020318
17:00+11sw227853 0.0 1019683
20:00+9wsw118433 0.0 101916
20 april, tue
tue2023:00+7wsw11918 0.0 101911
02:00+6ese00925 0.0 101910
05:00+5sse00945 0.0 101810
08:00+7sw00885 0.0 101870
11:00+13w11659 0.0 1018685
14:00+16wnw225452 0.2 10171477
17:00+15nw335488 0.1 10151109
20:00+13nw256399 0.1 1016178
21 april, wed
wed2123:00+11nnw3777100 0.0 1017238
02:00+9nw3683100 0.0 1017225
05:00+7wnw2589100 0.0 1017228
08:00+7wnw258710 0.0 1018247
11:00+8nnw5889100 0.3 1019729
14:00+12nnw565297 0.6 10201757
17:00+12nw684014 0.0 10202076
20:00+7nw58565 0.0 1022978
22 april, thu
thu2223:00+4nw310700 0.0 1023517
02:00+3wnw4107597 0.0 1023437
05:00+3wnw4118338 0.2 1023602
08:00+4wnw51177100 0.2 1023704
11:00+8nw6963100 0.1 10241466
14:00+9nw4763100 0.1 10251251
17:00+9nw4564100 0.0 10261020
20:00+8nnw2676100 0.1 1026445